Time,TemperatureF,DewpointF,PressureIn,WindDirection,WindDirectionDegrees,WindSpeedMPH,WindSpeedGustMPH,Humidity,HourlyPrecipIn,Conditions,Clouds,dailyrainin,SoftwareType,DateUTC
2015-03-03 00:10:00,38.4,28.0,30.23,SSE,148,0.0,1.0,67,0.00,,,0.00,weatherlink.com 1.10,2015-03-03 06:10:00,
2015-03-03 00:26:00,38.5,28.0,30.22,East,98,0.0,3.0,67,0.00,,,0.00,weatherlink.com 1.10,2015-03-03 06:26:00,
2015-03-03 00:42:00,38.4,28.0,30.21,ESE,114,1.0,1.0,67,0.00,,,0.00,weatherlink.com 1.10,2015-03-03 06:42:00,
2015-03-03 00:58:00,38.4,29.0,30.21,ESE,106,0.0,1.0,68,0.00,,,0.00,weatherlink.com 1.10,2015-03-03 06:58:00,
2015-03-03 01:14:00,38.3,29.0,30.20,ESE,111,0.0,1.0,68,0.00,,,0.00,weatherlink.com 1.10,2015-03-03 07:14:00,
2015-03-03 01:30:00,38.3,29.0,30.19,SSE,154,0.0,1.0,69,0.00,,,0.00,weatherlink.com 1.10,2015-03-03 07:30:00,
2015-03-03 01:47:00,38.2,30.0,30.17,SW,223,0.0,1.0,71,0.00,,,0.00,weatherlink.com 1.10,2015-03-03 07:47:00,
2015-03-03 02:03:00,38.2,29.0,30.17,South,190,1.0,2.0,69,0.00,,,0.00,weatherlink.com 1.10,2015-03-03 08:03:00,
2015-03-03 02:20:00,38.2,30.0,30.15,SW,216,0.0,1.0,71,0.00,,,0.00,weatherlink.com 1.10,2015-03-03 08:20:00,
2015-03-03 02:36:00,38.1,30.0,30.14,SSE,150,0.0,2.0,72,0.00,,,0.00,weatherlink.com 1.10,2015-03-03 08:36:00,
2015-03-03 02:52:00,38.1,30.0,30.13,SSE,150,2.0,3.0,71,0.00,,,0.00,weatherlink.com 1.10,2015-03-03 08:52:00,
2015-03-03 03:08:00,38.2,30.0,30.13,SE,141,0.0,1.0,72,0.00,,,0.00,weatherlink.com 1.10,2015-03-03 09:08:00,
2015-03-03 03:25:00,38.2,30.0,30.13,SSW,198,1.0,2.0,73,0.00,,,0.00,weatherlink.com 1.10,2015-03-03 09:25:00,
2015-03-03 03:41:00,38.3,30.0,30.12,SSW,198,0.0,2.0,73,0.00,,,0.00,weatherlink.com 1.10,2015-03-03 09:41:00,
2015-03-03 03:57:00,38.3,31.0,30.10,ESE,117,0.0,1.0,74,0.00,,,0.00,weatherlink.com 1.10,2015-03-03 09:57:00,
2015-03-03 04:13:00,38.5,31.0,30.10,SSW,198,0.0,3.0,74,0.00,,,0.00,weatherlink.com 1.10,2015-03-03 10:13:00,
2015-03-03 04:30:00,38.7,31.0,30.09,South,184,0.0,2.0,74,0.00,,,0.00,weatherlink.com 1.10,2015-03-03 10:30:00,
2015-03-03 04:46:00,39.0,32.0,30.11,SW,223,0.0,5.0,75,0.00,,,0.00,weatherlink.com 1.10,2015-03-03 10:46:00,
2015-03-03 05:02:00,39.2,32.0,30.11,East,84,1.0,1.0,75,0.00,,,0.00,weatherlink.com 1.10,2015-03-03 11:02:00,
2015-03-03 05:18:00,39.2,32.0,30.10,SE,134,1.0,1.0,76,0.00,,,0.00,weatherlink.com 1.10,2015-03-03 11:18:00,
2015-03-03 05:34:00,39.5,33.0,30.10,SE,127,1.0,3.0,76,0.00,,,0.00,weatherlink.com 1.10,2015-03-03 11:34:00,
2015-03-03 05:50:00,39.8,33.0,30.10,South,190,0.0,1.0,77,0.00,,,0.00,weatherlink.com 1.10,2015-03-03 11:50:00,
2015-03-03 06:07:00,40.1,33.0,30.10,SE,144,0.0,3.0,77,0.00,,,0.00,weatherlink.com 1.10,2015-03-03 12:07:00,
2015-03-03 06:23:00,40.3,34.0,30.09,SE,138,1.0,3.0,78,0.00,,,0.00,weatherlink.com 1.10,2015-03-03 12:23:00,
2015-03-03 06:39:00,40.5,35.0,30.09,SE,134,0.0,3.0,80,0.00,,,0.00,weatherlink.com 1.10,2015-03-03 12:39:00,
2015-03-03 06:55:00,40.5,36.0,30.08,ESE,112,0.0,3.0,84,0.00,,,0.00,weatherlink.com 1.10,2015-03-03 12:55:00,
2015-03-03 07:11:00,40.4,37.0,30.07,SSW,195,1.0,2.0,86,0.00,,,0.00,weatherlink.com 1.10,2015-03-03 13:11:00,
2015-03-03 07:27:00,40.7,37.0,30.08,SE,125,1.0,2.0,87,0.00,,,0.00,weatherlink.com 1.10,2015-03-03 13:27:00,
2015-03-03 07:43:00,41.6,38.0,30.06,South,175,0.0,3.0,88,0.00,,,0.00,weatherlink.com 1.10,2015-03-03 13:43:00,
2015-03-03 07:59:00,42.5,39.0,30.06,SSW,205,0.0,4.0,88,0.00,,,0.00,weatherlink.com 1.10,2015-03-03 13:59:00,
2015-03-03 08:17:00,43.7,41.0,30.05,SSE,156,2.0,4.0,89,0.00,,,0.00,weatherlink.com 1.10,2015-03-03 14:17:00,
2015-03-03 08:33:00,44.4,41.0,30.05,SSW,198,1.0,3.0,89,0.00,,,0.00,weatherlink.com 1.10,2015-03-03 14:33:00,
2015-03-03 08:49:00,45.2,42.0,30.04,SSW,212,2.0,4.0,90,0.00,,,0.00,weatherlink.com 1.10,2015-03-03 14:49:00,
2015-03-03 09:05:00,46.0,44.0,30.04,SSW,207,1.0,6.0,91,0.00,,,0.00,weatherlink.com 1.10,2015-03-03 15:05:00,
2015-03-03 09:21:00,46.6,44.0,30.04,SSW,213,1.0,3.0,91,0.00,,,0.00,weatherlink.com 1.10,2015-03-03 15:21:00,
2015-03-03 09:37:00,47.1,45.0,30.03,SSE,164,0.0,3.0,91,0.00,,,0.00,weatherlink.com 1.10,2015-03-03 15:37:00,
2015-03-03 09:53:00,48.3,46.0,30.02,SE,124,0.0,3.0,92,0.00,,,0.00,weatherlink.com 1.10,2015-03-03 15:53:00,
2015-03-03 10:10:00,49.9,48.0,30.01,SSW,210,3.0,5.0,92,0.00,,,0.00,weatherlink.com 1.10,2015-03-03 16:10:00,
2015-03-03 10:27:00,51.7,49.0,30.00,SSW,199,4.0,6.0,92,0.00,,,0.00,weatherlink.com 1.10,2015-03-03 16:27:00,
2015-03-03 10:43:00,53.9,52.0,30.00,SW,219,7.0,8.0,92,0.00,,,0.00,weatherlink.com 1.10,2015-03-03 16:43:00,
2015-03-03 10:59:00,54.6,52.0,29.99,SW,223,5.0,11.0,91,0.00,,,0.00,weatherlink.com 1.10,2015-03-03 16:59:00,
2015-03-03 11:15:00,55.5,53.0,29.98,SW,223,6.0,12.0,91,0.00,,,0.00,weatherlink.com 1.10,2015-03-03 17:15:00,
2015-03-03 11:31:00,56.3,53.0,29.98,SSW,210,6.0,10.0,90,0.00,,,0.00,weatherlink.com 1.10,2015-03-03 17:31:00,
2015-03-03 11:47:00,56.3,53.0,29.97,WSW,256,1.0,10.0,90,0.00,,,0.00,weatherlink.com 1.10,2015-03-03 17:47:00,
2015-03-03 12:04:00,56.8,54.0,29.97,WSW,238,8.0,13.0,90,0.00,,,0.00,weatherlink.com 1.10,2015-03-03 18:04:00,
2015-03-03 12:20:00,57.3,54.0,29.95,WSW,252,3.0,9.0,90,0.00,,,0.00,weatherlink.com 1.10,2015-03-03 18:20:00,
2015-03-03 12:36:00,57.8,55.0,29.94,SW,217,7.0,10.0,91,0.00,,,0.00,weatherlink.com 1.10,2015-03-03 18:36:00,
2015-03-03 12:52:00,57.9,55.0,29.94,SW,234,11.0,15.0,91,0.00,,,0.00,weatherlink.com 1.10,2015-03-03 18:52:00,
2015-03-03 13:09:00,58.6,56.0,29.93,SW,225,5.0,9.0,91,0.00,,,0.00,weatherlink.com 1.10,2015-03-03 19:09:00,
2015-03-03 13:27:00,59.2,56.0,29.92,WSW,245,7.0,18.0,90,0.00,,,0.00,weatherlink.com 1.10,2015-03-03 19:27:00,
2015-03-03 13:43:00,59.7,57.0,29.91,SW,214,4.0,11.0,90,0.00,,,0.00,weatherlink.com 1.10,2015-03-03 19:43:00,
2015-03-03 13:59:00,60.1,57.0,29.91,SW,218,5.0,8.0,90,0.00,,,0.00,weatherlink.com 1.10,2015-03-03 19:59:00,
2015-03-03 14:16:00,61.4,58.0,29.90,SW,231,6.0,12.0,88,0.00,,,0.00,weatherlink.com 1.10,2015-03-03 20:16:00,
2015-03-03 14:32:00,62.0,58.0,29.89,WSW,243,5.0,12.0,88,0.00,,,0.00,weatherlink.com 1.10,2015-03-03 20:32:00,
2015-03-03 14:48:00,62.9,59.0,29.88,SW,227,11.0,11.0,87,0.00,,,0.00,weatherlink.com 1.10,2015-03-03 20:48:00,
2015-03-03 15:07:00,64.0,59.0,29.86,SW,226,11.0,13.0,85,0.00,,,0.00,weatherlink.com 1.10,2015-03-03 21:07:00,
2015-03-03 15:23:00,64.6,60.0,29.86,SSW,205,2.0,13.0,84,0.00,,,0.00,weatherlink.com 1.10,2015-03-03 21:23:00,
2015-03-03 15:39:00,64.1,59.0,29.87,SSW,205,5.0,12.0,85,0.00,,,0.00,weatherlink.com 1.10,2015-03-03 21:39:00,
2015-03-03 15:55:00,64.4,59.0,29.86,SW,235,2.0,10.0,84,0.00,,,0.00,weatherlink.com 1.10,2015-03-03 21:55:00,
2015-03-03 16:11:00,64.4,59.0,29.86,WSW,251,3.0,9.0,84,0.00,,,0.00,weatherlink.com 1.10,2015-03-03 22:11:00,
2015-03-03 16:27:00,64.2,59.0,29.86,WSW,257,4.0,10.0,84,0.00,,,0.00,weatherlink.com 1.10,2015-03-03 22:27:00,
2015-03-03 16:43:00,64.1,59.0,29.86,SSW,211,7.0,13.0,84,0.00,,,0.00,weatherlink.com 1.10,2015-03-03 22:43:00,
2015-03-03 16:59:00,63.5,59.0,29.85,SSW,205,7.0,11.0,85,0.00,,,0.00,weatherlink.com 1.10,2015-03-03 22:59:00,
2015-03-03 17:16:00,62.8,59.0,29.85,SW,217,3.0,8.0,86,0.00,,,0.00,weatherlink.com 1.10,2015-03-03 23:16:00,
2015-03-03 17:32:00,62.0,58.0,29.86,WSW,242,3.0,10.0,88,0.00,,,0.00,weatherlink.com 1.10,2015-03-03 23:32:00,
2015-03-03 17:48:00,61.4,58.0,29.87,SW,215,4.0,9.0,90,0.00,,,0.00,weatherlink.com 1.10,2015-03-03 23:48:00,
2015-03-03 18:04:00,61.2,58.0,29.87,WSW,242,6.0,9.0,90,0.00,,,0.00,weatherlink.com 1.10,2015-03-04 00:04:00,
2015-03-03 18:20:00,61.1,58.0,29.86,SW,218,2.0,10.0,91,0.00,,,0.00,weatherlink.com 1.10,2015-03-04 00:20:00,
2015-03-03 18:37:00,60.9,58.0,29.87,SW,235,5.0,9.0,91,0.00,,,0.00,weatherlink.com 1.10,2015-03-04 00:37:00,
2015-03-03 18:53:00,60.9,59.0,29.87,WSW,238,3.0,7.0,92,0.00,,,0.00,weatherlink.com 1.10,2015-03-04 00:53:00,
2015-03-03 19:09:00,60.9,59.0,29.86,WSW,245,3.0,6.0,92,0.00,,,0.00,weatherlink.com 1.10,2015-03-04 01:09:00,
2015-03-03 19:25:00,60.8,58.0,29.86,SW,218,2.0,9.0,92,0.00,,,0.00,weatherlink.com 1.10,2015-03-04 01:25:00,
2015-03-03 19:41:00,60.7,58.0,29.86,WSW,256,4.0,9.0,92,0.00,,,0.00,weatherlink.com 1.10,2015-03-04 01:41:00,
2015-03-03 19:57:00,60.6,58.0,29.86,WSW,237,2.0,7.0,92,0.00,,,0.00,weatherlink.com 1.10,2015-03-04 01:57:00,
2015-03-03 20:13:00,60.4,58.0,29.85,WSW,237,4.0,7.0,93,0.00,,,0.00,weatherlink.com 1.10,2015-03-04 02:13:00,
2015-03-03 20:31:00,60.3,58.0,29.85,WSW,237,3.0,5.0,93,0.00,,,0.00,weatherlink.com 1.10,2015-03-04 02:31:00,
2015-03-03 20:47:00,59.9,58.0,29.85,WSW,237,1.0,6.0,95,0.00,,,0.00,weatherlink.com 1.10,2015-03-04 02:47:00,
2015-03-03 21:03:00,59.7,58.0,29.86,SW,236,0.0,4.0,95,0.00,,,0.00,weatherlink.com 1.10,2015-03-04 03:03:00,
2015-03-03 21:19:00,59.7,59.0,29.85,WSW,237,2.0,5.0,96,0.00,,,0.00,weatherlink.com 1.10,2015-03-04 03:19:00,
2015-03-03 21:35:00,59.6,58.0,29.85,SW,229,2.0,4.0,96,0.00,,,0.00,weatherlink.com 1.10,2015-03-04 03:35:00,
2015-03-03 21:52:00,59.7,59.0,29.84,South,177,2.0,4.0,96,0.00,,,0.00,weatherlink.com 1.10,2015-03-04 03:52:00,
2015-03-03 22:08:00,59.9,58.0,29.84,SW,219,1.0,6.0,95,0.01,,,0.01,weatherlink.com 1.10,2015-03-04 04:08:00,
2015-03-03 22:25:00,60.0,59.0,29.84,West,269,1.0,3.0,95,0.01,,,0.01,weatherlink.com 1.10,2015-03-04 04:25:00,
2015-03-03 22:41:00,57.6,56.0,29.85,NNW,341,6.0,7.0,94,0.01,,,0.01,weatherlink.com 1.10,2015-03-04 04:41:00,
2015-03-03 22:57:00,54.9,53.0,29.86,West,279,2.0,10.0,95,0.03,,,0.03,weatherlink.com 1.10,2015-03-04 04:57:00,